This demonstration page uses our WeatherBlox Daily Observations layout. Learn more.

Left ArrowRight Arrow

Hourly Observations for October 29, 2020

Temp ( °F °C ) Dew Point ( °F °C ) Humidity (%) Winds ( mph kmh ) Pressure ( in mb ) Visibility ( mi km ) Precip ( " mm )
12:53 am 00:53 Partly Cloudy 48 8.9 33 0.6 56 56 NW 13 20 30.09 1019 10 16 0.00 0.00
1:53 am 01:53 Mostly Clear 44 6.7 32 0 63 63 W 10 17 30.09 1019 10 16 0.00 0.00
2:53 am 02:53 Mostly Cloudy 45 7.2 34 1.1 66 66 NW 12 19 30.11 1020 10 16 0.00 0.00
3:53 am 03:53 Partly Cloudy 44 6.7 33 0.6 65 65 NW 10 17 30.13 1020 10 16 0.00 0.00
4:53 am 04:53 Mostly Clear 44 6.7 34 1.1 68 68 WNW 8 13 30.14 1021 10 16 0.00 0.00
5:53 am 05:53 Clear 40 4.4 33 0.6 77 77 WNW 8 13 30.17 1022 10 16 0.00 0.00
6:53 am 06:53 Clear 41 5 33 0.6 73 73 WNW 10 17 30.20 1023 10 16 0.00 0.00
7:53 am 07:53 Clear 41 5 33 0.6 73 73 NW 12 19 30.23 1024 10 16 0.00 0.00
8:53 am 08:53 Sunny 45 7.2 33 0.6 63 63 NNW 9 15 30.27 1025 10 16 0.00 0.00
9:53 am 09:53 Sunny 51 10.6 33 0.6 50 50 N 12 19 30.32 1027 10 16 0.00 0.00
10:53 am 10:53 Sunny 56 13.3 33 0.6 42 42 N 15 24 30.31 1026 10 16 0.00 0.00
11:53 am 11:53 Sunny 59 15 33 0.6 38 38 N 15 24 30.30 1026 10 16 0.00 0.00
12:53 pm 12:53 Sunny 61 16.1 33 0.6 35 35 N 13 20 30.27 1025 10 16 0.00 0.00
1:53 pm 13:53 Sunny 63 17.2 33 0.6 33 33 NW 13 20 30.23 1024 10 16 0.00 0.00
2:53 pm 14:53 Sunny 64 17.8 33 0.6 32 32 N 7 11 30.19 1023 10 16 0.00 0.00
3:53 pm 15:53 Sunny 67 19.4 32 0 27 27 NE 8 13 30.17 1022 10 16 0.00 0.00
4:53 pm 16:53 Sunny 68 20 32 0 26 26 NNE 7 11 30.17 1022 10 16 0.00 0.00
5:53 pm 17:53 Sunny 66 18.9 32 0 28 28 Calm 30.18 1022 10 16 0.00 0.00
6:53 pm 18:53 Sunny 64 17.8 32 0 30 30 ENE 5 7 30.19 1022 10 16 0.00 0.00
7:53 pm 19:53 Clear 57 13.9 32 0 39 39 E 6 9 30.21 1023 10 16 0.00 0.00
8:53 pm 20:53 Clear 53 11.7 32 0 45 45 E 6 9 30.24 1024 10 16 0.00 0.00
9:53 pm 21:53 Clear 50 10 32 0 50 50 E 6 9 30.24 1024 10 16 0.00 0.00
10:53 pm 22:53 Clear 48 8.9 32 0 54 54 ESE 7 11 30.23 1024 10 16 0.00 0.00
11:53 pm 23:53 Clear 47 8.3 33 0.6 59 59 ESE 7 11 30.23 1024 10 16 0.00 0.00

Powered by AerisWeather